FW8288 Weather Reports


time (UTC)temp
F
wind
direction
speed
knots
gust
knots
rain 1hr
in
rain 24hr
in
rain mn
in
humidity
%
barometer
mb
20211025044646 76 135 0.0 3.5 0.00 0.00 0.00 94 1012.7
20211025043242 76 0 0.0 5.2 0.00 0.00 0.00 94 1012.7
20211025041751 76 127 0.9 2.6 0.00 0.00 0.00 93 1012.6
20211025040151 76 0 0.0 2.6 0.00 0.00 0.00 92 1012.6
20211025034604 77 115 0.9 1.7 0.00 0.00 0.00 92 1012.6
20211025033144 77 0 0.0 0.9 0.00 0.00 0.00 91 1012.9
20211025031632 77 0 0.0 0.9 0.00 0.00 0.00 90 1012.6
20211025030309 77 0 0.0 1.7 0.00 0.00 0.00 89 1012.5
20211025024623 78 132 0.0 1.7 0.00 0.00 0.00 88 1012.1
20211025023255 78 218 0.0 0.9 0.00 0.00 0.00 88 1012.0
20211025021650 78 135 0.0 1.7 0.00 0.00 0.00 87 1011.7
20211025020129 79 137 0.0 0.9 0.00 0.00 0.00 86 1011.5
20211025014652 79 0 0.0 0.9 0.00 0.00 0.00 85 1011.3
20211025013130 80 0 0.0 1.7 0.00 0.00 0.00 84 1011.2
20211025011659 80 0 0.0 2.6 0.00 0.00 0.00 83 1010.9
20211025010122 81 116 0.0 2.6 0.00 0.00 0.00 82 1010.7
20211025004621 81 134 0.0 1.7 0.00 0.00 0.00 81 1010.5
20211025003114 82 94 0.0 2.6 0.00 0.00 0.00 80 1010.3
20211025001826 82 77 0.9 2.6 0.00 0.00 0.00 79 1010.2
20211025000226 83 94 0.0 4.3 0.00 0.00 0.00 76 1010.1
20211024234705 84 94 0.9 3.5 0.00 0.00 0.00 73 1010.0
20211024233121 85 96 0.0 2.6 0.00 0.00 0.00 70 1009.9
20211024231628 85 107 0.0 1.7 0.00 0.00 0.00 66 1009.9
20211024230126 87 0 0.0 1.7 0.00 0.00 0.00 65 1009.7
20211024224655 87 119 0.0 2.6 0.00 0.00 0.00 63 1009.8
20211024223137 88 104 0.0 2.6 0.00 0.00 0.00 63 1009.7
20211024221656 88 101 0.9 3.5 0.00 0.00 0.00 62 1009.6
20211024220139 88 0 0.0 2.6 0.00 0.00 0.00 62 1009.6
20211024214613 88 114 0.9 2.6 0.00 0.02 0.00 60 1009.8
20211024213147 89 136 0.9 4.3 0.00 0.02 0.00 59 1009.7
20211024211808 89 285 0.0 3.5 0.00 0.02 0.00 59 1009.8
20211024210128 90 264 0.9 3.5 0.00 0.02 0.00 58 1009.7
20211024204634 89 136 0.9 4.3 0.00 0.02 0.00 57 1009.8
20211024203114 90 102 0.9 3.5 0.00 0.02 0.00 59 1009.8
20211024201659 90 126 0.9 4.3 0.00 0.02 0.00 58 1009.9
20211024200307 90 75 0.9 4.3 0.00 0.02 0.00 60 1010.1
20211024194718 90 308 0.9 4.3 0.00 0.02 0.00 57 1010.2
20211024193150 90 115 0.9 5.2 0.00 0.02 0.00 59 1010.5
20211024191639 89 77 0.9 2.6 0.00 0.02 0.00 62 1010.6
20211024190207 90 117 0.9 4.3 0.00 0.02 0.00 60 1010.9
20211024184654 90 188 0.9 2.6 0.00 0.02 0.00 63 1011.1
20211024183209 88 30 1.7 5.2 0.00 0.02 0.00 65 1011.3
20211024181723 87 112 0.0 1.7 0.00 0.02 0.00 65 1011.4
20211024180122 87 143 0.9 3.5 0.00 0.02 0.00 67 1011.7
20211024174725 86 0 0.0 3.5 0.00 0.02 0.00 68 1011.9
20211024173112 86 73 0.0 2.6 0.00 0.02 0.00 71 1012.2
20211024171722 85 80 0.9 3.5 0.00 0.02 0.00 72 1012.4
20211024170136 84 96 0.9 4.3 0.00 0.02 0.00 75 1012.5
20211024164659 83 111 0.9 4.3 0.00 0.02 0.00 79 1012.7
20211024163144 81 80 1.7 4.3 0.00 0.02 0.00 82 1012.9
20211024161624 80 89 1.7 4.3 0.00 0.02 0.00 83 1013.1
20211024160151 81 38 0.9 4.3 0.00 0.02 0.00 83 1012.9
20211024154709 79 118 1.7 5.2 0.00 0.02 0.00 85 1013.2
20211024153209 78 356 1.7 5.2 0.00 0.02 0.00 87 1013.0
20211024151729 77 64 2.6 4.3 0.00 0.02 0.00 88 1012.9
20211024150147 77 80 2.6 5.2 0.00 0.02 0.00 89 1012.7
20211024144634 76 81 1.7 6.1 0.00 0.02 0.00 90 1012.5
20211024143139 75 121 1.7 6.1 0.00 0.02 0.00 92 1012.4
20211024141709 75 86 1.7 5.2 0.00 0.02 0.00 92 1012.2
20211024140255 74 68 1.7 3.5 0.00 0.02 0.00 93 1012.1
20211024134705 73 79 1.7 5.2 0.00 0.02 0.00 93 1011.6
20211024133215 73 75 0.9 3.5 0.00 0.02 0.00 94 1011.4
20211024131636 72 88 0.9 2.6 0.00 0.02 0.00 95 1011.2
20211024130205 71 79 0.9 2.6 0.00 0.02 0.00 96 1011.1
20211024124625 71 84 0.0 1.7 0.00 0.02 0.00 96 1011.2
20211024123221 70 72 0.0 3.5 0.00 0.02 0.00 96 1011.2
20211024121638 70 77 0.9 2.6 0.00 0.02 0.00 96 1011.1
20211024120219 69 0 0.0 1.7 0.00 0.02 0.00 96 1011.1
20211024114732 69 0 0.0 0.9 0.00 0.02 0.00 96 1011.1
20211024113115 69 95 0.0 0.9 0.00 0.02 0.00 96 1011.1
20211024111650 68 0 0.0 0.9 0.00 0.02 0.00 96 1011.0
20211024110107 68 0 0.0 0.0 0.00 0.02 0.00 96 1010.9
20211024104657 68 0 0.0 0.9 0.00 0.02 0.00 96 1010.9
20211024103222 68 0 0.0 0.9 0.00 0.02 0.00 96 1010.8
20211024101853 68 0 0.0 0.9 0.00 0.02 0.00 96 1010.8
20211024100134 68 0 0.0 0.9 0.00 0.02 0.00 96 1010.8
20211024094653 67 0 0.0 0.0 0.00 0.02 0.00 96 1011.0
20211024093141 67 0 0.0 0.0 0.00 0.02 0.00 96 1011.1
20211024091706 67 0 0.0 0.0 0.00 0.02 0.00 96 1011.4
20211024090215 67 0 0.0 0.0 0.00 0.02 0.00 96 1011.4
20211024084706 67 0 0.0 0.0 0.00 0.02 0.00 95 1011.4
20211024083312 67 0 0.0 0.0 0.00 0.02 0.00 95 1011.6
20211024081757 67 0 0.0 0.0 0.00 0.02 0.00 95 1011.4
20211024080135 67 0 0.0 0.0 0.00 0.02 0.00 94 1011.5
20211024074644 68 0 0.0 0.0 0.00 0.02 0.00 94 1011.6
20211024073145 68 0 0.0 0.0 0.00 0.02 0.00 94 1011.7
20211024071736 68 0 0.0 0.0 0.00 0.02 0.00 94 1011.9
20211024070154 69 0 0.0 0.0 0.00 0.02 0.00 93 1011.9
20211024064620 69 0 0.0 0.0 0.00 0.02 0.00 93 1011.8
20211024063139 69 0 0.0 1.7 0.00 0.02 0.00 93 1011.9
20211024061659 69 0 0.0 1.7 0.00 0.02 0.00 93 1011.9
20211024060112 69 87 0.0 2.6 0.00 0.02 0.00 92 1011.9
20211024054636 70 55 0.0 2.6 0.00 0.02 0.00 92 1012.0
20211024053132 70 93 0.9 2.6 0.00 0.02 0.00 92 1012.1
20211024051750 70 151 0.0 1.7 0.00 0.02 0.00 92 1012.1
20211024050222 70 94 0.9 5.2 0.00 0.02 0.00 92 1012.3